Location: Kershaw
(34.5481°N, 80.5823°W)
Time: 12:49:49
(UTC+00:00)

A-11 Canister half - Pass Details

Date: 06 October 2022
Orbit: 1524 x 1685 km, 47.3° (Epoch: 25 November)

Event Time Altitude Azimuth Distance (km) Brightness Sun altitude
Rises 02:43:43 0° 304° (WNW) 4,727 12.3 -45.1°
Reaches altitude 10° 02:46:46 10° 301° (WNW) 3,759 11.6 -45.6°
Enters shadow 02:53:00 45° 282° (WNW) 2,072 9.7 -46.6°
